Weather History for KRDD - October, 2011

Change the Weather History Date:

Tuesday, October 25, 2011

  Actual Average Record
Temperature  
Mean Temperature 66 °F -  
Max Temperature 73 °F 73 °F 92 °F (2003)
Min Temperature 58 °F 47 °F 36 °F (1996)
Degree Days  
Heating Degree Days 0    
Month to date heating degree days 54  
Cooling Degree Days 1    
Month to date cooling degree days 42  
Year to date cooling degree days 1700  
Growing Degree Days 14 (Base 50)    
Moisture  
Dew Point 21 °F    
Average Humidity 19    
Maximum Humidity 28    
Minimum Humidity 10    
Precipitation  
Precipitation 0.00 in 0.09 in 1.80 in (1991)
Month to date precipitation 3.05 1.47  
Year to date precipitation 23.62 23.24  
Since 1 July precipitation 3.33 2.38  
Sea Level Pressure  
Sea Level Pressure 30.07 in    
Wind  
Wind Speed 13 mph (North)    
Max Wind Speed 43 mph    
Max Gust Speed 164 mph    
Visibility 10 miles    
Events      
T = Trace of Precipitation, MM = Missing Value Source: NWS Daily Summary

Daily Weather History Graph

Daily Weather History Graph

Search for Another Location

Airport or City:

Trip Planner

Search our weather history database for the weather conditions in past years. The results will help you decide how hot, cold, wet, or windy it might be!

Date:

Astronomy

Oct. 25, 2011 Rise Set
Actual Time 7:30 AM PDT 6:14 PM PDT
Civil Twilight 7:03 AM PDT 6:42 PM PDT
Nautical Twilight 6:31 AM PDT 7:14 PM PDT
Astronomical Twilight 5:59 AM PDT 7:46 PM PDT
Moon 6:09 AM PDT (10/25) 5:19 PM PDT (10/25)
Length of Visible Light 11h 39m
Length of Day
10h 43m
Waning Crescent, 2% of the Moon is Illuminated
Oct 25
Waning Crescent
Oct 26
New
Nov 2
First Quarter
Nov 10
Full
Nov 18
Last Quarter

Hourly Weather History & Observations

Time (PDT) Temp. Dew Point Humidity Pressure Visibility Wind Dir Wind Speed Gust Speed Precip Events Conditions
12:53 AM 64.9 °F 30.9 °F 28% 30.01 in 10.0 mi North 10.4 mph - N/A   Clear
1:53 AM 64.0 °F 30.9 °F 29% 30.02 in 10.0 mi North 10.4 mph - N/A   Clear
2:53 AM 63.0 °F 28.9 °F 28% 30.03 in 10.0 mi NNW 10.4 mph 19.6 mph N/A   Clear
3:53 AM 62.1 °F 26.1 °F 25% 30.03 in 10.0 mi North 8.1 mph 26.5 mph N/A   Clear
4:16 AM 60.8 °F 24.8 °F 25% 30.04 in 10.0 mi West 18.4 mph 162.3 mph N/A   Squalls
4:34 AM 60.8 °F 24.8 °F 25% 30.04 in 10.0 mi North - - N/A   Clear
4:53 AM 60.8 °F 24.8 °F 25% 30.04 in 10.0 mi North - - N/A   Clear
5:53 AM 60.1 °F 21.9 °F 23% 30.04 in 10.0 mi North 12.7 mph 21.9 mph N/A   Clear
6:53 AM 59.0 °F 21.0 °F 23% 30.04 in 10.0 mi North 13.8 mph 21.9 mph N/A   Clear
7:53 AM 57.9 °F 19.9 °F 23% 30.06 in 10.0 mi North 10.4 mph 19.6 mph N/A   Clear
8:53 AM 60.1 °F 21.0 °F 22% 30.09 in 10.0 mi NNW 11.5 mph - N/A   Clear
9:53 AM 62.1 °F 19.9 °F 20% 30.09 in 10.0 mi North 16.1 mph 24.2 mph N/A   Clear
10:53 AM 64.9 °F 19.9 °F 18% 30.09 in 10.0 mi NNE 25.3 mph 33.4 mph N/A   Clear
11:53 AM 66.0 °F 19.0 °F 17% 30.09 in 10.0 mi North 23.0 mph 28.8 mph N/A   Clear
12:53 PM 69.1 °F 17.1 °F 14% 30.07 in 10.0 mi North 23.0 mph 29.9 mph N/A   Clear
1:53 PM 71.1 °F 21.0 °F 15% 30.04 in 10.0 mi North 16.1 mph 23.0 mph N/A   Clear
2:53 PM 72.0 °F 12.9 °F 10% 30.03 in 10.0 mi North 21.9 mph 38.0 mph N/A   Clear
3:53 PM 72.0 °F 12.0 °F 10% 30.03 in 10.0 mi North 21.9 mph - N/A   Clear
4:53 PM 72.0 °F 14.0 °F 11% 30.03 in 10.0 mi North 19.6 mph 29.9 mph N/A   Clear
5:53 PM 69.8 °F 15.8 °F 13% 30.05 in 10.0 mi North 16.1 mph 21.9 mph N/A   Clear
6:53 PM 66.0 °F 23.0 °F 20% 30.08 in 10.0 mi WNW 5.8 mph - N/A   Clear
7:53 PM 61.0 °F 23.0 °F 23% 30.09 in 10.0 mi NW 6.9 mph - N/A   Clear
8:53 PM 64.0 °F 18.0 °F 17% 30.11 in 10.0 mi North 11.5 mph - N/A   Clear
9:53 PM 61.0 °F 18.0 °F 19% 30.14 in 10.0 mi NNW 5.8 mph - N/A   Clear
10:53 PM 60.1 °F 17.1 °F 19% 30.15 in 10.0 mi NNW 6.9 mph - N/A   Clear
11:53 PM 60.1 °F 17.1 °F 19% 30.16 in 10.0 mi North 15.0 mph - N/A   Clear